EN

Hourly Weather Novokizhinginsk

Today, 12 May, Wednesday

Time Temperature Precipitation Wind Pressure Humidity
00:00 +1°C° 0 mm 2 mps 690 mmHg 88%
01:00 -1°C° 0 mm 2 mps 689 mmHg 91%
02:00 -1°C° 0 mm 2 mps 689 mmHg 92%
03:00 -1°C° 0 mm 2 mps 689 mmHg 93%
04:00 -1°C° 0 mm 2 mps 689 mmHg 94%
05:00 +2°C° 0 mm 2 mps 689 mmHg 83%
06:00 +5°C° 0 mm 2 mps 689 mmHg 73%
07:00 +8°C° 0 mm 3 mps 689 mmHg 63%
08:00 +9°C° 0.1 mm 3 mps 689 mmHg 55%
09:00 +10°C° 0.1 mm 4 mps 688 mmHg 48%
10:00 +12°C° 0.1 mm 5 mps 688 mmHg 41%
11:00 +12°C° 0 mm 5 mps 688 mmHg 39%
12:00 +13°C° 0 mm 5 mps 687 mmHg 37%
13:00 +13°C° 0 mm 5 mps 687 mmHg 35%
14:00 +13°C° 0 mm 5 mps 687 mmHg 35%
15:00 +13°C° 0 mm 5 mps 687 mmHg 36%
16:00 +13°C° 0 mm 5 mps 686 mmHg 37%
17:00 +11°C° 0.1 mm 4 mps 687 mmHg 47%
18:00 +8°C° 0.1 mm 4 mps 687 mmHg 57%
19:00 +7°C° 0.1 mm 3 mps 687 mmHg 67%
20:00 +6°C° 0 mm 2 mps 688 mmHg 73%
21:00 +4°C° 0 mm 2 mps 688 mmHg 78%
22:00 +3°C° 0 mm 1 mps 688 mmHg 84%
23:00 +3°C° 0 mm 1 mps 688 mmHg 84%

Tomorrow, 13 May, Thursday

Time Temperature Precipitation Wind Pressure Humidity
00:00 +3°C° 0 mm 1 mps 688 mmHg 85%
01:00 +3°C° 0 mm 1 mps 688 mmHg 85%
02:00 +2°C° 0 mm 1 mps 688 mmHg 85%
03:00 +2°C° 0 mm 1 mps 688 mmHg 84%
04:00 +2°C° 0 mm 1 mps 688 mmHg 83%
05:00 +2°C° 0 mm 2 mps 689 mmHg 71%
06:00 +2°C° 0 mm 3 mps 689 mmHg 59%
07:00 +4°C° 0 mm 3 mps 689 mmHg 46%
08:00 +5°C° 0 mm 4 mps 689 mmHg 43%
09:00 +6°C° 0 mm 4 mps 689 mmHg 39%
10:00 +6°C° 0 mm 5 mps 688 mmHg 35%
11:00 +7°C° 0 mm 5 mps 688 mmHg 33%
12:00 +7°C° 0 mm 5 mps 688 mmHg 31%
13:00 +7°C° 0 mm 5 mps 688 mmHg 29%
14:00 +7°C° 0 mm 5 mps 688 mmHg 29%
15:00 +7°C° 0 mm 6 mps 688 mmHg 29%
16:00 +5°C° 0 mm 6 mps 688 mmHg 29%
17:00 +5°C° 0 mm 5 mps 688 mmHg 33%
18:00 +4°C° 0 mm 4 mps 688 mmHg 38%
19:00 +3°C° 0 mm 4 mps 689 mmHg 42%
20:00 +2°C° 0 mm 3 mps 689 mmHg 48%
21:00 +1°C° 0 mm 3 mps 689 mmHg 55%
22:00 -1°C° 0 mm 2 mps 689 mmHg 61%
23:00 -1°C° 0 mm 3 mps 689 mmHg 63%

Day after tomorrow, 14 May, Friday

Time Temperature Precipitation Wind Pressure Humidity
00:00 -1°C° 0 mm 3 mps 689 mmHg 64%
01:00 -1°C° 0 mm 3 mps 689 mmHg 66%
02:00 -2°C° 0 mm 2 mps 690 mmHg 70%
03:00 -3°C° 0 mm 2 mps 690 mmHg 74%
04:00 -3°C° 0 mm 2 mps 690 mmHg 78%
05:00 -1°C° 0 mm 2 mps 690 mmHg 69%
06:00 +2°C° 0 mm 2 mps 691 mmHg 61%
07:00 +3°C° 0 mm 3 mps 691 mmHg 53%
08:00 +5°C° 0 mm 3 mps 691 mmHg 48%
09:00 +8°C° 0 mm 3 mps 691 mmHg 43%
10:00 +8°C° 0 mm 4 mps 691 mmHg 38%
11:00 +10°C° 0 mm 4 mps 690 mmHg 35%
12:00 +12°C° 0 mm 4 mps 690 mmHg 32%
13:00 +13°C° 0 mm 4 mps 690 mmHg 29%
14:00 +13°C° 0 mm 4 mps 690 mmHg 27%
15:00 +13°C° 0 mm 4 mps 690 mmHg 26%
16:00 +13°C° 0 mm 4 mps 690 mmHg 25%
17:00 +11°C° 0 mm 4 mps 690 mmHg 30%
18:00 +10°C° 0 mm 3 mps 690 mmHg 35%
19:00 +8°C° 0 mm 2 mps 690 mmHg 40%
20:00 +6°C° 0 mm 2 mps 691 mmHg 44%
21:00 +6°C° 0 mm 1 mps 691 mmHg 49%
22:00 +4°C° 0 mm 1 mps 691 mmHg 54%
23:00 +4°C° 0 mm 1 mps 691 mmHg 56%

15 May, Saturday

Time Temperature Precipitation Wind Pressure Humidity
00:00 +3°C° 0 mm 1 mps 691 mmHg 58%
01:00 +3°C° 0 mm 1 mps 692 mmHg 60%
02:00 +2°C° 0 mm 1 mps 692 mmHg 62%
03:00 +2°C° 0 mm 1 mps 692 mmHg 64%
04:00 +2°C° 0 mm 1 mps 692 mmHg 66%
05:00 +4°C° 0 mm 2 mps 692 mmHg 55%
06:00 +6°C° 0 mm 2 mps 692 mmHg 44%
07:00 +9°C° 0 mm 2 mps 692 mmHg 33%
08:00 +12°C° 0 mm 2 mps 692 mmHg 29%
09:00 +14°C° 0 mm 3 mps 691 mmHg 26%
10:00 +17°C° 0 mm 4 mps 691 mmHg 22%
11:00 +18°C° 0 mm 4 mps 691 mmHg 22%
12:00 +17°C° 0 mm 5 mps 691 mmHg 21%
13:00 +19°C° 0 mm 5 mps 691 mmHg 20%
14:00 +17°C° 0 mm 5 mps 691 mmHg 23%
15:00 +16°C° 0 mm 6 mps 691 mmHg 26%
16:00 +15°C° 0 mm 6 mps 691 mmHg 29%
17:00 +14°C° 0 mm 5 mps 691 mmHg 36%
18:00 +12°C° 0 mm 5 mps 691 mmHg 42%
19:00 +11°C° 0 mm 4 mps 691 mmHg 48%
20:00 +8°C° 0 mm 4 mps 692 mmHg 50%
21:00 +7°C° 0 mm 4 mps 692 mmHg 52%
22:00 +5°C° 0 mm 4 mps 693 mmHg 54%
23:00 +5°C° 0 mm 4 mps 693 mmHg 55%

16 May, Sunday

Time Temperature Precipitation Wind Pressure Humidity
00:00 +4°C° 0 mm 3 mps 693 mmHg 57%
01:00 +3°C° 0 mm 3 mps 693 mmHg 58%
02:00 +4°C° 0 mm 3 mps 693 mmHg 61%
03:00 +4°C° 0 mm 4 mps 693 mmHg 64%
04:00 +4°C° 0 mm 4 mps 693 mmHg 66%
05:00 +5°C° 0 mm 5 mps 694 mmHg 63%
06:00 +7°C° 0 mm 6 mps 694 mmHg 60%
07:00 +8°C° 0 mm 6 mps 694 mmHg 56%
08:00 +9°C° 0 mm 6 mps 694 mmHg 59%
09:00 +9°C° 0 mm 6 mps 694 mmHg 62%
10:00 +10°C° 0 mm 6 mps 694 mmHg 65%
11:00 +11°C° 0 mm 6 mps 694 mmHg 58%
12:00 +14°C° 0 mm 6 mps 694 mmHg 51%
13:00 +16°C° 0 mm 6 mps 693 mmHg 44%
14:00 +16°C° 0 mm 5 mps 693 mmHg 42%
15:00 +17°C° 0 mm 5 mps 693 mmHg 40%
16:00 +18°C° 0 mm 4 mps 692 mmHg 38%
17:00 +17°C° 0 mm 3 mps 692 mmHg 43%
18:00 +16°C° 0 mm 2 mps 691 mmHg 47%
19:00 +14°C° 0 mm 2 mps 691 mmHg 52%
20:00 +13°C° 0 mm 2 mps 691 mmHg 56%
21:00 +12°C° 0 mm 2 mps 691 mmHg 60%
22:00 +10°C° 0 mm 1 mps 691 mmHg 64%
23:00 +9°C° 0 mm 2 mps 690 mmHg 65%

17 May, Monday

Time Temperature Precipitation Wind Pressure Humidity
00:00 +8°C° 0 mm 2 mps 690 mmHg 66%
01:00 +8°C° 0 mm 2 mps 690 mmHg 67%
02:00 +8°C° 0 mm 2 mps 689 mmHg 68%
03:00 +7°C° 0 mm 2 mps 689 mmHg 69%
04:00 +8°C° 0 mm 1 mps 688 mmHg 70%
05:00 +10°C° 0 mm 2 mps 688 mmHg 60%
06:00 +14°C° 0 mm 2 mps 688 mmHg 51%
07:00 +16°C° 0 mm 2 mps 688 mmHg 41%
08:00 +18°C° 0 mm 3 mps 688 mmHg 36%
09:00 +20°C° 0 mm 3 mps 688 mmHg 31%
10:00 +23°C° 0 mm 4 mps 688 mmHg 26%
11:00 +23°C° 0 mm 4 mps 687 mmHg 24%
12:00 +25°C° 0 mm 5 mps 687 mmHg 22%
13:00 +26°C° 0 mm 5 mps 686 mmHg 20%
14:00 +26°C° 0 mm 6 mps 686 mmHg 21%
15:00 +24°C° 0 mm 6 mps 686 mmHg 22%
16:00 +24°C° 0 mm 6 mps 685 mmHg 23%
17:00 +22°C° 0 mm 6 mps 686 mmHg 31%
18:00 +19°C° 0 mm 6 mps 686 mmHg 38%
19:00 +16°C° 0 mm 6 mps 686 mmHg 46%
20:00 +15°C° 0 mm 5 mps 687 mmHg 56%
21:00 +13°C° 0 mm 5 mps 687 mmHg 67%
22:00 +12°C° 0 mm 5 mps 688 mmHg 77%
23:00 +9°C° 0 mm 5 mps 689 mmHg 72%
Show more

We Need Your Consent

Meteoprog and our Service Providers may store and access personal data such as cookies, device identifiers or other similar technologies on your device and process such data to personalise content and ads, as well as provide social media features and to analyse the traffic.

  • Store and/or access information on your device

    Cookies, device identifiers or other information can be stored or accessed on your device for the purposes indicated above.

  • Personalised ads and content, ad and content measurement, audience insights, and products development

    Ads and content can be personalised based on a profile. More data can be added to better personalise ads and content. Ad and content performance can be measured. Insights about the audience who saw the ads and content can be derived. Such data can be used to develop or improve user’s experience, systems and software.

By clicking ‘I Agree’ you will allow the use of indicated cookies, device identifiers, web beacons or other similar technologies. Your settings can be changed in the browser on your device.

For certain purposes, legitimate interests may be relied on, rather than consent. You can read more about this in our Privacy and Cookie Policy.